| time (UTC) | temp F | wind direction | speed knots | gust knots | rain 1hr in | rain 24hr in | rain mn in | humidity % | barometer mb |
| 20260510092228 | 45 | 111 | 0.0 | 0.0 | 0.00 | 0.09 | 0.00 | 97 | 1008.2 |
| 20260510090726 | 45 | 111 | 0.0 | 0.0 | 0.00 | 0.09 | 0.00 | 97 | 1008.3 |
| 20260510085222 | 46 | 111 | 0.0 | 0.0 | 0.00 | 0.09 | 0.00 | 97 | 1008.0 |
| 20260510084453 | 46 | 111 | 0.0 | 0.0 | 0.00 | 0.09 | 0.00 | 97 | 1008.2 |
| 20260510082217 | 46 | 111 | 0.0 | 0.0 | 0.00 | 0.09 | 0.00 | 97 | 1008.7 |
| 20260510080718 | 46 | 111 | 0.0 | 0.0 | 0.00 | 0.09 | 0.00 | 97 | 1009.1 |
| 20260510075216 | 46 | 111 | 0.0 | 0.0 | 0.00 | 0.09 | 0.00 | 97 | 1008.8 |
| 20260510074446 | 46 | 111 | 0.0 | 0.0 | 0.00 | 0.09 | 0.00 | 97 | 1008.7 |
| 20260510072210 | 46 | 111 | 0.0 | 0.0 | 0.00 | 0.09 | 0.00 | 97 | 1008.6 |
| 20260510070709 | 46 | 111 | 0.0 | 0.0 | 0.00 | 0.09 | 0.00 | 97 | 1008.5 |
| 20260510065209 | 46 | 111 | 0.0 | 0.0 | 0.00 | 0.09 | 0.00 | 97 | 1008.8 |
| 20260510063709 | 47 | 111 | 0.0 | 0.0 | 0.00 | 0.09 | 0.00 | 97 | 1008.9 |
| 20260510062209 | 47 | 111 | 0.0 | 0.0 | 0.00 | 0.09 | 0.00 | 97 | 1008.7 |
| 20260510060705 | 47 | 111 | 0.0 | 0.0 | 0.00 | 0.09 | 0.00 | 97 | 1008.8 |
| 20260510055203 | 47 | 111 | 0.0 | 0.0 | 0.00 | 0.09 | 0.00 | 97 | 1008.7 |
| 20260510053703 | 47 | 111 | 0.0 | 5.2 | 0.00 | 0.09 | 0.00 | 97 | 1008.9 |
| 20260510052205 | 47 | 181 | 0.0 | 1.7 | 0.00 | 0.09 | 0.00 | 97 | 1008.9 |
| 20260510050657 | 47 | 183 | 0.0 | 1.7 | 0.00 | 0.09 | 0.00 | 97 | 1008.8 |
| 20260510045929 | 47 | 123 | 0.0 | 5.2 | 0.00 | 0.09 | 0.00 | 97 | 1009.1 |
| 20260510043652 | 47 | 183 | 0.0 | 1.7 | 0.00 | 0.09 | 0.00 | 98 | 1009.3 |
| 20260510042922 | 46 | 189 | 0.0 | 1.7 | 0.00 | 0.09 | 0.00 | 97 | 1009.0 |
| 20260510040644 | 46 | 189 | 0.0 | 2.6 | 0.00 | 0.09 | 0.00 | 97 | 1009.0 |
| 20260510035145 | 46 | 185 | 0.0 | 0.0 | 0.00 | 0.09 | 0.09 | 97 | 1009.3 |
| 20260510033637 | 46 | 185 | 0.0 | 0.0 | 0.00 | 0.09 | 0.09 | 97 | 1009.3 |
| 20260510032907 | 46 | 185 | 0.0 | 0.0 | 0.00 | 0.09 | 0.09 | 97 | 1009.3 |
| 20260510030636 | 46 | 185 | 0.0 | 0.0 | 0.00 | 0.09 | 0.09 | 97 | 1009.4 |
| 20260510025137 | 46 | 185 | 0.0 | 0.0 | 0.00 | 0.09 | 0.09 | 97 | 1009.6 |
| 20260510023637 | 46 | 185 | 0.0 | 1.7 | 0.00 | 0.09 | 0.09 | 97 | 1009.7 |
| 20260510022136 | 46 | 185 | 0.0 | 3.5 | 0.00 | 0.09 | 0.09 | 97 | 1009.8 |
| 20260510020636 | 46 | 196 | 0.0 | 0.0 | 0.00 | 0.09 | 0.09 | 97 | 1009.8 |
| 20260510015133 | 46 | 196 | 0.0 | 2.6 | 0.00 | 0.09 | 0.09 | 97 | 1009.9 |
| 20260510013632 | 46 | 198 | 0.0 | 1.7 | 0.00 | 0.09 | 0.09 | 97 | 1010.0 |
| 20260510012133 | 46 | 198 | 0.0 | 2.6 | 0.00 | 0.09 | 0.09 | 97 | 1010.0 |
| 20260510010631 | 46 | 196 | 0.0 | 2.6 | 0.00 | 0.09 | 0.09 | 96 | 1009.9 |
| 20260510005129 | 46 | 195 | 0.9 | 3.5 | 0.00 | 0.09 | 0.09 | 96 | 1009.9 |
| 20260510003628 | 46 | 189 | 0.0 | 3.5 | 0.00 | 0.09 | 0.09 | 96 | 1009.9 |
| 20260510002128 | 46 | 188 | 0.0 | 3.5 | 0.00 | 0.09 | 0.09 | 96 | 1009.7 |
| 20260510001358 | 46 | 190 | 0.0 | 2.6 | 0.00 | 0.09 | 0.09 | 96 | 1009.4 |
| 20260509235127 | 47 | 192 | 0.9 | 3.5 | 0.00 | 0.09 | 0.09 | 96 | 1009.1 |
| 20260509233628 | 47 | 186 | 0.0 | 3.5 | 0.00 | 0.09 | 0.09 | 96 | 1009.1 |
| 20260509232127 | 47 | 186 | 0.0 | 3.5 | 0.00 | 0.09 | 0.09 | 96 | 1009.1 |
| 20260509230624 | 47 | 184 | 0.0 | 3.5 | 0.00 | 0.09 | 0.09 | 96 | 1009.0 |
| 20260509225124 | 47 | 184 | 0.0 | 4.3 | 0.00 | 0.09 | 0.09 | 96 | 1009.1 |
| 20260509224355 | 47 | 182 | 0.9 | 3.5 | 0.00 | 0.09 | 0.09 | 95 | 1009.1 |
| 20260509222121 | 47 | 142 | 0.0 | 0.0 | 0.00 | 0.09 | 0.09 | 95 | 1009.1 |
| 20260509220623 | 47 | 142 | 0.0 | 3.5 | 0.00 | 0.09 | 0.09 | 95 | 1009.3 |
| 20260509215115 | 47 | 213 | 0.0 | 4.3 | 0.00 | 0.09 | 0.09 | 95 | 1009.4 |
| 20260509213616 | 47 | 187 | 0.9 | 5.2 | 0.01 | 0.09 | 0.09 | 95 | 1009.7 |
| 20260509213611 | 47 | 185 | 0.9 | 3.5 | 0.01 | 0.09 | 0.09 | 95 | 1009.9 |
| 20260509210612 | 47 | 182 | 0.0 | 3.5 | 0.01 | 0.09 | 0.09 | 95 | 1009.8 |
| 20260509205109 | 47 | 159 | 0.0 | 3.5 | 0.02 | 0.09 | 0.09 | 95 | 1009.8 |
| 20260509203609 | 47 | 156 | 0.0 | 1.7 | 0.01 | 0.08 | 0.08 | 95 | 1010.0 |
| 20260509202842 | 46 | 202 | 0.9 | 4.3 | 0.01 | 0.08 | 0.08 | 95 | 1010.0 |
| 20260509200608 | 46 | 169 | 0.9 | 3.5 | 0.02 | 0.08 | 0.08 | 95 | 1010.0 |
| 20260509195107 | 46 | 160 | 0.0 | 0.0 | 0.01 | 0.07 | 0.07 | 94 | 1010.2 |
| 20260509193605 | 46 | 160 | 0.0 | 1.7 | 0.02 | 0.07 | 0.07 | 94 | 1010.3 |
| 20260509192105 | 46 | 161 | 0.0 | 2.6 | 0.02 | 0.07 | 0.07 | 94 | 1010.4 |
| 20260509190604 | 46 | 194 | 0.0 | 3.5 | 0.01 | 0.06 | 0.06 | 93 | 1010.4 |
| 20260509185057 | 46 | 155 | 0.0 | 2.6 | 0.02 | 0.06 | 0.06 | 92 | 1010.5 |
| 20260509184326 | 46 | 188 | 0.0 | 4.3 | 0.01 | 0.05 | 0.05 | 93 | 1010.7 |
| 20260509182050 | 46 | 186 | 0.9 | 8.7 | 0.02 | 0.05 | 0.05 | 92 | 1010.8 |
| 20260509181322 | 46 | 177 | 1.7 | 9.6 | 0.02 | 0.05 | 0.05 | 92 | 1010.8 |
| 20260509175046 | 46 | 194 | 1.7 | 7.8 | 0.02 | 0.04 | 0.04 | 91 | 1010.8 |
| 20260509173550 | 46 | 150 | 1.7 | 7.8 | 0.02 | 0.04 | 0.04 | 91 | 1011.1 |
| 20260509172046 | 46 | 170 | 1.7 | 6.1 | 0.02 | 0.03 | 0.03 | 92 | 1011.1 |
| 20260509170544 | 46 | 173 | 1.7 | 6.1 | 0.02 | 0.03 | 0.03 | 91 | 1011.3 |
| 20260509165044 | 46 | 136 | 0.9 | 5.2 | 0.01 | 0.02 | 0.02 | 91 | 1011.4 |
| 20260509164315 | 46 | 177 | 1.7 | 7.0 | 0.01 | 0.02 | 0.02 | 89 | 1011.6 |
| 20260509162042 | 46 | 151 | 0.9 | 6.1 | 0.00 | 0.01 | 0.01 | 89 | 1011.7 |
| 20260509160538 | 46 | 115 | 1.7 | 7.0 | 0.01 | 0.01 | 0.01 | 87 | 1011.7 |
| 20260509155812 | 46 | 177 | 0.0 | 3.5 | 0.01 | 0.01 | 0.01 | 88 | 1011.9 |
| 20260509153533 | 46 | 130 | 0.9 | 5.2 | 0.01 | 0.01 | 0.01 | 84 | 1012.1 |
| 20260509152035 | 47 | 189 | 0.0 | 3.5 | 0.01 | 0.01 | 0.01 | 82 | 1012.2 |
| 20260509151300 | 47 | 175 | 1.7 | 7.0 | 0.00 | 0.00 | 0.00 | 79 | 1012.1 |
| 20260509145028 | 48 | 163 | 2.6 | 7.8 | 0.00 | 0.00 | 0.00 | 72 | 1011.8 |
| 20260509143523 | 49 | 178 | 2.6 | 7.8 | 0.00 | 0.00 | 0.00 | 69 | 1011.7 |
| 20260509142024 | 49 | 153 | 2.6 | 9.6 | 0.00 | 0.00 | 0.00 | 68 | 1011.8 |
| 20260509140523 | 49 | 186 | 2.6 | 9.6 | 0.00 | 0.00 | 0.00 | 67 | 1011.6 |
| 20260509135024 | 49 | 182 | 1.7 | 6.1 | 0.00 | 0.00 | 0.00 | 66 | 1011.6 |
| 20260509133518 | 48 | 355 | 1.7 | 7.0 | 0.00 | 0.00 | 0.00 | 68 | 1011.7 |
| 20260509132020 | 47 | 190 | 1.7 | 4.3 | 0.00 | 0.00 | 0.00 | 70 | 1011.7 |
| 20260509130515 | 45 | 128 | 0.9 | 3.5 | 0.00 | 0.00 | 0.00 | 73 | 1011.9 |
| 20260509125016 | 42 | 119 | 0.0 | 0.0 | 0.00 | 0.00 | 0.00 | 85 | 1012.0 |
| 20260509123512 | 39 | 97 | 0.0 | 0.0 | 0.00 | 0.00 | 0.00 | 90 | 1012.2 |
| 20260509122009 | 35 | 96 | 0.0 | 0.0 | 0.00 | 0.00 | 0.00 | 94 | 1012.4 |
| 20260509120502 | 33 | 96 | 0.0 | 0.0 | 0.00 | 0.00 | 0.00 | 97 | 1012.7 |
| 20260509115001 | 32 | 96 | 0.0 | 0.0 | 0.00 | 0.00 | 0.00 | 98 | 1012.7 |
| 20260509113454 | 30 | 96 | 0.0 | 0.0 | 0.00 | 0.00 | 0.00 | 97 | 1012.8 |
| 20260509111955 | 29 | 96 | 0.0 | 0.0 | 0.00 | 0.00 | 0.00 | 96 | 1012.9 |
| 20260509110453 | 28 | 96 | 0.0 | 0.0 | 0.00 | 0.00 | 0.00 | 95 | 1012.9 |
| 20260509104952 | 28 | 96 | 0.0 | 0.0 | 0.00 | 0.00 | 0.00 | 95 | 1013.0 |
| 20260509103453 | 28 | 95 | 0.0 | 0.0 | 0.00 | 0.00 | 0.00 | 95 | 1012.9 |
| 20260509101950 | 28 | 95 | 0.0 | 0.0 | 0.00 | 0.00 | 0.00 | 95 | 1012.8 |
| 20260509101223 | 28 | 95 | 0.0 | 0.0 | 0.00 | 0.00 | 0.00 | 94 | 1012.6 |
| 20260509100446 | 28 | 95 | 0.0 | 0.0 | 0.00 | 0.00 | 0.00 | 94 | 1012.4 |
| 20260509093445 | 28 | 95 | 0.0 | 0.0 | 0.00 | 0.00 | 0.00 | 94 | 1012.4 |